Regional Weather Roundup
Issued by NWS Upton, NY

Current Version | Previous Version | Text Only | Print | Product List | Glossary On
Versions: 1 2 3 4 5 6 7 8 9 10 11 12 13 14 15 16 17 18 19 20 21 22 23 24 25 26 27 28 29 30 31 32 33 34 35 36 37 38 39 40 41 42 43 44 45 46 47 48 49 50
000
ASUS41 KOKX 302005
RWROKX

REGIONAL WEATHER ROUNDUP
NATIONAL WEATHER SERVICE NEW YORK NY
400 PM EDT SAT AUG 30 2014

NOTE: "FAIR" INDICATES FEW OR NO CLOUDS BELOW 12,000 FEET WITH NO
SIGNIFICANT WEATHER AND/OR OBSTRUCTIONS TO VISIBILITY.

NYZ071-072-176-178-NJZ106-104-302100-
NEW YORK CITY METRO AREA


CITY           SKY/WX    TMP DP  RH WIND       PRES   REMARKS
CENTRAL PARK   CLOUDY    75  61  61 VRB7      30.22F
LAGUARDIA APRT PTSUNNY   76  62  62 S14       30.19F
KENNEDY INTL   PTSUNNY   76  63  64 S15       30.21F
NEWARK/LIBERTY CLOUDY    76  64  66 VRB7      30.18F
BRNX BOT. GARD   N/A    N/A N/A N/A E7        30.19F
TETERBORO      CLOUDY    77  61  57 S12       30.17F
$$

NYZ177-179-078>081-302100-
LONG ISLAND NEW YORK

CITY           SKY/WX    TMP DP  RH WIND       PRES   REMARKS
FARMINGDALE    CLOUDY    73  62  68 SW14      30.21F
ISLIP          PTSUNNY   74  60  61 S13       30.20F
SHIRLEY        PTSUNNY   75  61  61 S10G18    30.22F
WESTHAMPTON    PTSUNNY   75  60  59 S10G20    30.24F
MONTAUK POINT    N/A     74  60  61 VRB5      30.24F
$$

NYZ052-065-067-302100-
HUDSON VALLEY

CITY           SKY/WX    TMP DP  RH WIND       PRES   REMARKS
WHITE PLAINS   CLOUDY    75  60  59 S10       30.19F
NEWBURGH       CLOUDY    77  61  57 SW7       30.18F
MONTGOMERY     CLOUDY    78  59  51 SW10      30.16F
POUGHKEEPSIE   CLOUDY    79  59  50 S8        30.15F
ALBANY         MOSUNNY   80  58  46 S16G22    30.11F
$$

NJZ001-105-106-008-010-013-015-019>022-104-302100-
NEW JERSEY

CITY           SKY/WX    TMP DP  RH WIND       PRES   REMARKS
NEWARK/LIBERTY CLOUDY    76  64  66 VRB7      30.18F
TETERBORO      CLOUDY    77  61  57 S12       30.17F
CALDWELL       CLOUDY    76  59  55 VRB5      30.19F
MORRISTOWN     CLOUDY    77  61  57 SW9       30.19F
SOMERVILLE     CLOUDY    76  61  59 S7        30.17F
LINDEN         CLOUDY    81  65  59 S9        30.20F
SUSSEX         CLOUDY    77  61  57 SW9       30.18F
ANDOVER          N/A     74  62  66 VRB3      30.19F
TRENTON        CLOUDY    76  63  64 S8        30.18F
MILLVILLE      CLOUDY   N/A N/A N/A VRB5      30.19F
ATLANTIC CITY  CLOUDY    76  59  55 S10       30.20F
WRIGHTSTOWN    PTSUNNY   76  65  68 S8        30.16F
TOMS RIVER     CLOUDY    75  64  69 S8        30.20F
BELMAR         CLOUDY    73  63  68 S7        30.20F
$$

PAZ047>061-062-071-302100-
EASTERN PENNSYLVANIA

CITY           SKY/WX    TMP DP  RH WIND       PRES   REMARKS
PHILADELPHIA   CLOUDY    80  62  54 S9        30.18F
ALLENTOWN      CLOUDY    76  62  62 S8        30.18F
SCRANTON       CLOUDY    74  61  63 VRB7      30.16F
$$

CTZ002-004>006-009-010-012-RIZ004-006-007-MAZ004-011-015-302100-
SOUTHERN NEW ENGLAND
 IN CT

CITY           SKY/WX    TMP DP  RH WIND       PRES   REMARKS
BRADLEY INTL   PTSUNNY   78  57  48 S9        30.16F
HARTFORD       CLOUDY    76  59  55 S10       30.17F
DANBURY        CLOUDY    74  58  57 S10G20    30.20F
WTRBRY/OXFORD  NOT AVBL
BRIDGEPORT     CLOUDY    76  61  59 S14G21    30.20F
MERIDEN        CLOUDY    77  58  51 S13G18    30.19F
NEW HAVEN      PTSUNNY   79  62  56 S12       30.20F
CHESTER        MOCLDY    72  61  68 S10       30.22F
GROTON         MOSUNNY   71  60  68 S14       30.21F
WILLIMANTIC    PTSUNNY   75  58  55 S10       30.21F

 IN RI

CITY           SKY/WX    TMP DP  RH WIND       PRES   REMARKS
PROVIDENCE     MOSUNNY   73  59  61 S16G24    30.22F
BLOCK ISLAND   MOSUNNY   72  61  68 S13       30.24F
WESTERLY       SUNNY     73  60  63 S10       30.24F

 IN MA

CITY           SKY/WX    TMP DP  RH WIND       PRES   REMARKS
BOSTON         MOSUNNY   77  51  40 S15       30.18F
WORCESTER      PTSUNNY   72  55  55 SW13      30.21F
WESTFIELD      PTSUNNY   79  56  45 S13       30.16F
PROVINCETOWN   SUNNY     72  55  56 S14G22    30.22F
NANTUCKET      SUNNY     68  55  63 SE9       30.25F
$$

ANZ330-335-338-340-345-350-353-355-302100-
COASTAL MARINE OBSERVATIONS


STATION/POSITION TIME  SKY/WX   TEMP    WIND        PRES    VSBY  WAVE
                                AIR SEA DIR/SP/G                  HT/PER
                 (UTC)          (F)     (DEG/KT/KT) (MB)    (MI)  (FT/S)
NY HARB ENTRANCE NOT AVBL
4S FIRE IS       NOT AVBL
23SW MTP         2000                                 N/A           2/ 8
HUDSON CANYON    2000            73 74  180/  8/ 10 1023.5          2/ 8
EXECUTION ROCKS  2000            75 74  190/ 12/ 17   N/A
WESTERN LI SOUND 2000            75     180/ 10/ 14   N/A           1/ 2
CENTRAL LI SOUND 1900            72 73  210/ 12/ 14   N/A           1/ 2
EASTERN LI SOUND 1900            72 69  170/ 10/ 14   N/A
ROBBINS REEF     2000            73     160/ 17/ 18   N/A
$$


>>>>>>>>>>>>>>>>>>>>>>>>>>>> KEY <<<<<<<<<<<<<<<<<<<<<<<<<<<
>                                                          <
>     SKY/WX - SKY CONDITION/PRESENT WEATHER               <
>     TMP    - TEMPERATURE IN FAHRENHEIT                   <
>     DP     - DEWPOINT IN FAHRENHEIT                      <
>     RH     - RELATIVE HUMIDITY IN PERCENT                <
>     WIND   - DIRECTION AND SPEED IN MPH                  <
>     PRES   - MEAN SEA LEVEL PRESSURE IN INCHES OF HG     <
>     WCI    - WIND CHILL INDEX                            <
>     VSB    - VISIBILITY IN MILES                         <
>     HX     - HEAT INDEX                                  <
>     TC     - TEMPERATURE IN CELSIUS                      <
>     VRB    - VARIABLE WIND DIRECTION                     <
>                                                          <
>>>>>>>>>>>>>>>>>>>>>>>>>>>> KEY <<<<<<<<<<<<<<<<<<<<<<<<<<<





USA.gov is the U.S. government's official web portal to all federal, state and local government web resources and services.